[[{"header":{"parameterUnit":"m.s-1","parameterCategory":1,"la1":30.2991,"la2":30.254,"lo1":-89.0895,"lo2":-89.0444,"dy":0.0017,"dx":0.0017,"nx":28,"ny":28,"refTime":"2025-03-19T09:00:00:Z","depth":0,"parameterNumber":2,"parameterNumberName":"U-component_of_WINDS"},"data":[0,0,0,0,0,0,0,0,0,0,0,0,0,0,0,0,0,0,0,0,0,0,0,0,0,0,0,0,0,0,0,0,0,0,0,0,0,0,0,0,0,0,0,0,0,0,0,0,0,0,0,0,0,0,0,0,0,0,-1.0433,-1.0433,0,-1.0396,-1.0395,-1.0395,-1.0369,-1.0369,-1.0369,-1.0369,-1.0329,-1.0328,-1.0327,0,0,0,0,0,0,0,0,0,0,0,0,0,-1.0481,-1.048,-1.0433,-1.0433,-1.0432,-1.0396,-1.0395,-1.0395,-1.037,-1.0369,-1.0369,-1.0369,-1.0329,-1.0328,-1.0327,0,0,0,0,0,0,0,0,0,0,0,0,0,-1.0454,-1.048,-1.0433,-1.0415,-1.0413,-1.0396,-1.0395,-1.0395,-1.037,-1.0369,-1.0369,-1.0369,-1.033,-1.0328,-1.0327,-1.0324,0,0,-1.0323,-1.0322,0,0,0,0,0,0,0,0,-1.0455,-1.0452,-1.0419,-1.0417,-1.0414,-1.0387,-1.0397,-1.0371,-1.037,-1.0386,-1.0369,-1.0369,-1.0348,-1.0345,-1.0339,-1.0322,-1.032,-1.0323,-1.0322,-1.0321,-1.0321,0,0,0,0,0,0,0,-1.0457,-1.0453,-1.0418,-1.0418,-1.0416,-1.0408,-1.0404,-1.0392,-1.0369,-1.0385,-1.0383,-1.0379,-1.0347,-1.034,-1.0338,-1.032,-1.0323,-1.0322,-1.0321,-1.032,-1.0296,-1.0296,0,0,0,0,0,0,-1.0462,-1.0455,-1.042,-1.0417,-1.0435,-1.0408,-1.0403,-1.0396,-1.0369,-1.0365,-1.0379,-1.0378,-1.0343,-1.0339,-1.0336,-1.033,-1.0321,-1.032,-1.0319,-1.0296,-1.0296,-1.0296,0,0,0,0,0,0,-1.0463,-1.0459,-1.0421,-1.0436,-1.043,-1.0407,-1.0399,-1.0395,-1.0389,-1.0365,-1.0361,-1.0376,-1.0342,-1.0338,-1.0327,-1.0328,-1.0319,-1.0318,-1.0296,-1.0296,-1.0296,-1.0317,0,0,0,0,0,0,-1.0465,-1.046,-1.0459,-1.0436,-1.043,-1.0413,-1.04,-1.0395,-1.0386,-1.0384,-1.0361,-1.0357,-1.0342,-1.0329,-1.0325,-1.0326,-1.0317,-1.0296,-1.0296,-1.0296,-1.0316,-1.0318,-1.032,0,0,0,0,0,-1.0467,-1.0466,-1.0459,-1.0455,-1.0428,-1.0413,-1.0409,-1.0392,-1.0387,-1.0385,-1.037,-1.0358,-1.0329,-1.0328,-1.0324,-1.0324,-1.0295,-1.0296,-1.0296,-1.0315,-1.0318,-1.032,0,0,0,0,0,0,-1.049,-1.0463,-1.0455,-1.0447,-1.0433,-1.0409,-1.0407,-1.0395,-1.0382,-1.0381,-1.0359,-1.0354,-1.0345,-1.0333,-1.0333,-1.0319,-1.031,-1.031,-1.0326,-1.0328,-1.033,-1.0333,-1.0316,0,0,0,0,0,-1.0494,-1.0485,-1.0462,-1.0457,-1.045,-1.043,-1.0423,-1.0411,-1.0394,-1.0388,-1.0372,-1.0356,-1.0343,-1.0335,-1.0322,-1.0314,-1.0308,-1.0312,-1.0314,-1.0316,-1.0315,-1.0309,-1.031,-1.0298,-1.0298,-1.0298,0,0,-1.0503,-1.0487,-1.0482,-1.0461,-1.0449,-1.0439,-1.0425,-1.0415,-1.0407,-1.0386,-1.0375,-1.0362,-1.0343,-1.0333,-1.0328,-1.0323,-1.0317,-1.0316,-1.0318,-1.0316,-1.0309,-1.0311,-1.0312,-1.0298,-1.0298,-1.0298,0,0,-1.0513,-1.0501,-1.0495,-1.0483,-1.0464,-1.045,-1.0449,-1.0427,-1.0417,-1.0405,-1.0389,-1.0379,-1.0358,-1.0344,-1.0335,-1.0339,-1.0327,-1.0336,-1.0344,-1.0338,-1.0339,-1.034,-1.0341,-1.0341,-1.0335,-1.0336,-1.0336,0,-1.0526,-1.0511,-1.0494,-1.0484,-1.0475,-1.0456,-1.045,-1.0438,-1.0416,-1.041,-1.0405,-1.0377,-1.0363,-1.0349,-1.035,-1.0343,-1.034,-1.0338,-1.0341,-1.0341,-1.0342,-1.0342,-1.0342,-1.0337,-1.0336,-1.0336,-1.0336,0,-1.0527,-1.0517,-1.0515,-1.0494,-1.0484,-1.0476,-1.0457,-1.0449,-1.0438,-1.0424,-1.0411,-1.0393,-1.0376,-1.0372,-1.0361,-1.0356,-1.0353,-1.0345,-1.0336,-1.0344,-1.0344,-1.0344,-1.0338,-1.0338,-1.0337,-1.0337,0,0,-1.0552,-1.0521,-1.052,-1.051,-1.0487,-1.0478,-1.0469,-1.0452,-1.0446,-1.0431,-1.0422,-1.0403,-1.0395,-1.0384,-1.0371,-1.0366,-1.0369,-1.0358,-1.0357,-1.036,-1.0361,-1.0367,-1.0368,-1.0362,-1.0362,-1.0361,-1.0363,0,-1.0558,-1.0541,-1.0525,-1.0513,-1.0503,-1.0484,-1.0476,-1.0461,-1.0448,-1.0436,-1.0421,-1.0408,-1.0399,-1.0392,-1.0387,-1.037,-1.0369,-1.037,-1.0352,-1.0351,-1.0357,-1.0368,-1.0374,-1.0377,-1.0363,-1.0363,-1.0363,0,-1.0563,-1.0549,-1.0537,-1.0514,-1.0509,-1.0502,-1.0485,-1.0475,-1.0456,-1.0447,-1.0435,-1.0421,-1.0409,-1.0402,-1.0385,-1.0386,-1.0377,-1.0368,-1.0368,-1.0365,-1.0357,-1.0365,-1.0377,-1.0377,-1.0363,-1.0363,-1.0363,0,-1.0581,-1.0559,-1.0548,-1.054,-1.0514,-1.0509,-1.0498,-1.048,-1.047,-1.0455,-1.0448,-1.0432,-1.0422,-1.0409,-1.0391,-1.0387,-1.0375,-1.0367,-1.0366,-1.0366,-1.0364,-1.0364,-1.0374,-1.036,-1.0359,-1.0359,-1.0359,0,-1.0589,-1.0582,-1.0556,-1.0549,-1.054,-1.0521,-1.0512,-1.0499,-1.0483,-1.0473,-1.0456,-1.0447,-1.0423,-1.0411,-1.0396,-1.0384,-1.038,-1.0371,-1.0367,-1.0372,-1.0373,-1.0366,-1.0365,-1.036,-1.036,-1.036,-1.036,0,-1.0607,-1.0589,-1.0576,-1.0552,-1.0546,-1.0541,-1.052,-1.0512,-1.0498,-1.0485,-1.0481,-1.0459,-1.0443,-1.0423,-1.0401,-1.0391,-1.038,-1.0374,-1.0386,-1.0384,-1.0384,-1.0384,-1.0389,-1.0388,-1.0375,-1.0375,-1.0376,0,-1.0613,-1.0607,-1.0582,-1.0575,-1.0564,-1.0552,-1.0542,-1.0523,-1.0513,-1.0491,-1.0486,-1.0469,-1.0455,-1.043,-1.0411,-1.0394,-1.0388,-1.039,-1.0385,-1.039,-1.0386,-1.0387,-1.0385,-1.0392,-1.0392,-1.0392,-1.0392,0,-1.0625,-1.0616,-1.0603,-1.0587,-1.0576,-1.0562,-1.0548,-1.0542,-1.0519,-1.0509,-1.0493,-1.0482,-1.0459,-1.0442,-1.0422,-1.041,-1.0397,-1.0394,-1.0393,-1.0398,-1.0405,-1.04,-1.0389,-1.0394,-1.0394,-1.0394,-1.0394,-1.0394,-1.0636,-1.063,-1.0612,-1.0597,-1.0584,-1.0571,-1.0562,-1.0547,-1.0534,-1.0514,-1.0503,-1.0487,-1.0468,-1.044,-1.0428,-1.0414,-1.041,-1.0408,-1.0408,-1.0407,-1.0409,-1.0408,-1.0411,-1.0411,-1.0411,-1.041,-1.041,0,-1.0647,-1.0634,-1.0621,-1.0601,-1.059,-1.058,-1.0563,-1.0553,-1.054,-1.0523,-1.0509,-1.049,-1.0474,-1.0453,-1.0435,-1.0428,-1.0421,-1.0424,-1.0424,-1.0421,-1.0414,-1.0417,-1.0429,-1.0429,-1.0429,-1.0429,-1.0429,-1.0429,-1.0651,-1.0639,-1.0628,-1.061,-1.0597,-1.0581,-1.0572,-1.0559,-1.0546,-1.0526,-1.0512,-1.0499,-1.0481,-1.0461,-1.0444,-1.0439,-1.0432,-1.0436,-1.0429,-1.0423,-1.0421,-1.042,-1.0422,-1.0435,-1.0435,-1.0436,-1.0436,-1.0436]},{"header":{"parameterUnit":"m.s-1","parameterCategory":1,"la1":30.2991,"la2":30.254,"lo1":-89.0895,"lo2":-89.0444,"dy":0.0017,"dx":0.0017,"nx":28,"ny":28,"refTime":"2025-03-19T09:00:00:Z","depth":0,"parameterNumber":3,"parameterNumberName":"V-component_of_WINDS"},"data":[0,0,0,0,0,0,0,0,0,0,0,0,0,0,0,0,0,0,0,0,0,0,0,0,0,0,0,0,0,0,0,0,0,0,0,0,0,0,0,0,0,0,0,0,0,0,0,0,0,0,0,0,0,0,0,0,0,0,5.808,5.8081,0,5.8115,5.8115,5.8116,5.811,5.8109,5.8109,5.8108,5.8141,5.8142,5.8144,0,0,0,0,0,0,0,0,0,0,0,0,0,5.8009,5.8011,5.808,5.8081,5.8081,5.8115,5.8115,5.8116,5.811,5.8109,5.8109,5.8108,5.8141,5.8142,5.8144,0,0,0,0,0,0,0,0,0,0,0,0,0,5.8041,5.8011,5.808,5.8083,5.8083,5.8115,5.8115,5.8116,5.811,5.8109,5.8108,5.8108,5.814,5.8142,5.8144,5.8175,0,0,5.8151,5.8152,0,0,0,0,0,0,0,0,5.804,5.8044,5.8082,5.8082,5.8083,5.8107,5.8102,5.8136,5.811,5.81,5.8108,5.8107,5.813,5.8133,5.8142,5.8177,5.8178,5.8151,5.8152,5.8153,5.8154,0,0,0,0,0,0,0,5.8037,5.8043,5.8094,5.8082,5.8083,5.8082,5.8085,5.8109,5.8119,5.8101,5.81,5.8105,5.813,5.8139,5.8142,5.8178,5.8151,5.8153,5.8154,5.8155,5.8244,5.8245,0,0,0,0,0,0,5.8035,5.8041,5.8093,5.8095,5.8059,5.8084,5.8088,5.81,5.8119,5.8121,5.8105,5.8104,5.8136,5.814,5.8143,5.8183,5.8153,5.8155,5.8156,5.8243,5.8245,5.8246,0,0,0,0,0,0,5.8033,5.8039,5.8091,5.8068,5.8074,5.8086,5.81,5.8102,5.8111,5.8123,5.8125,5.8113,5.8136,5.814,5.8168,5.8184,5.8156,5.8158,5.8242,5.8244,5.8245,5.8262,0,0,0,0,0,0,5.8031,5.8039,5.8051,5.8068,5.8076,5.8116,5.8101,5.8103,5.8115,5.8113,5.813,5.8132,5.8135,5.8165,5.817,5.8187,5.816,5.8241,5.8243,5.8245,5.826,5.8264,5.8268,0,0,0,0,0,5.8029,5.8053,5.8051,5.8057,5.8091,5.8117,5.8121,5.8125,5.8116,5.8128,5.8137,5.8131,5.8182,5.8168,5.8174,5.8191,5.824,5.8242,5.8244,5.8259,5.8263,5.8267,0,0,0,0,0,0,5.8034,5.8055,5.8053,5.8084,5.8099,5.8116,5.8131,5.8129,5.8147,5.8145,5.8148,5.8152,5.8181,5.8189,5.8173,5.8224,5.8209,5.8213,5.8218,5.8223,5.8226,5.8224,5.8161,0,0,0,0,0,5.804,5.806,5.8076,5.8101,5.8109,5.8119,5.813,5.8133,5.8148,5.8154,5.8164,5.8179,5.8198,5.8211,5.8229,5.8261,5.8266,5.8276,5.828,5.8283,5.8286,5.8307,5.8313,5.8254,5.8254,5.8254,0,0,5.805,5.8063,5.8075,5.8103,5.8115,5.8136,5.8124,5.8146,5.8162,5.8157,5.8185,5.8193,5.821,5.8241,5.8255,5.8248,5.8304,5.8286,5.8288,5.829,5.831,5.8316,5.8321,5.8256,5.8255,5.8255,0,0,5.808,5.8091,5.8115,5.8128,5.8147,5.8154,5.816,5.8178,5.8184,5.8213,5.821,5.8229,5.8261,5.8275,5.8285,5.8324,5.8321,5.833,5.8349,5.8369,5.8374,5.8378,5.8394,5.84,5.8333,5.8333,5.8333,0,5.8089,5.8122,5.8127,5.8151,5.8164,5.8162,5.8188,5.8199,5.8223,5.8232,5.8224,5.8268,5.8278,5.8314,5.8324,5.8332,5.834,5.8328,5.8373,5.8377,5.8381,5.8397,5.8403,5.8334,5.8334,5.8334,5.8334,0,5.8134,5.8157,5.8174,5.82,5.8214,5.8238,5.8248,5.8262,5.8264,5.8272,5.8303,5.8316,5.8339,5.8347,5.8348,5.8384,5.838,5.8372,5.8358,5.8388,5.8403,5.8409,5.8336,5.8335,5.8335,5.8335,0,0,5.8167,5.8198,5.8204,5.8218,5.824,5.8258,5.8282,5.8306,5.832,5.8336,5.8358,5.8388,5.8382,5.8395,5.8397,5.8415,5.8448,5.8406,5.8406,5.8415,5.8492,5.8498,5.8505,5.8446,5.8447,5.8448,5.8491,0,5.8201,5.8246,5.8253,5.8293,5.8315,5.8316,5.8338,5.8354,5.8363,5.8383,5.8393,5.8415,5.8405,5.8413,5.843,5.844,5.8464,5.8437,5.8468,5.8469,5.8465,5.8512,5.8518,5.8559,5.8497,5.8498,5.8498,0,5.8245,5.8266,5.8309,5.8332,5.8342,5.8362,5.8386,5.8405,5.8424,5.843,5.8446,5.8447,5.8474,5.8458,5.8496,5.8478,5.8491,5.8498,5.85,5.8504,5.8486,5.8519,5.8571,5.8578,5.8507,5.8506,5.8506,0,5.8268,5.8307,5.8338,5.8349,5.8376,5.839,5.8402,5.8421,5.8436,5.8457,5.8467,5.849,5.8503,5.8521,5.8529,5.8516,5.8568,5.8552,5.8574,5.8574,5.8585,5.8584,5.8641,5.8591,5.859,5.859,5.859,0,5.8305,5.8332,5.8349,5.8369,5.84,5.8408,5.8438,5.8449,5.8467,5.8489,5.849,5.851,5.8519,5.8541,5.8548,5.858,5.8585,5.8591,5.8592,5.8592,5.8591,5.8601,5.8599,5.8592,5.8592,5.8591,5.8591,0,5.8335,5.8348,5.8383,5.8407,5.8414,5.8436,5.8456,5.8476,5.8485,5.8514,5.8521,5.8536,5.8563,5.8573,5.8604,5.8609,5.8647,5.8645,5.8641,5.8641,5.8664,5.8662,5.873,5.8741,5.8681,5.8682,5.8682,0,5.8359,5.838,5.8408,5.8424,5.8437,5.8462,5.8478,5.8488,5.8505,5.8531,5.8548,5.8575,5.8597,5.864,5.8654,5.8679,5.8679,5.8701,5.8682,5.8682,5.8682,5.8681,5.8685,5.8705,5.8705,5.8706,5.8706,0,5.8401,5.8407,5.8431,5.8459,5.8479,5.85,5.8521,5.8534,5.8547,5.8566,5.8595,5.8612,5.8647,5.8674,5.8701,5.8713,5.8713,5.8712,5.8719,5.8719,5.8717,5.8721,5.8652,5.871,5.871,5.871,5.8709,5.8709,5.843,5.845,5.8474,5.8501,5.8519,5.8539,5.856,5.8574,5.8598,5.8629,5.8633,5.8664,5.8686,5.8722,5.8735,5.876,5.8754,5.8763,5.8766,5.8769,5.8772,5.8712,5.8765,5.8764,5.8764,5.8764,5.8764,0,5.8473,5.8489,5.8515,5.8546,5.8569,5.8568,5.8592,5.8611,5.8639,5.866,5.8683,5.8717,5.8745,5.8762,5.879,5.8807,5.8808,5.8814,5.8814,5.8817,5.8774,5.8766,5.8813,5.8813,5.8813,5.8813,5.8813,5.8813,5.8498,5.8534,5.8544,5.8588,5.8604,5.8636,5.8651,5.867,5.8687,5.8727,5.875,5.8762,5.8782,5.8812,5.8838,5.8843,5.8854,5.8861,5.8865,5.8825,5.882,5.8815,5.8808,5.8863,5.8863,5.8907,5.8907,5.8907]}]]